Time,TemperatureF,DewpointF,PressureIn,WindDirection,WindDirectionDegrees,WindSpeedMPH,WindSpeedGustMPH,Humidity,HourlyPrecipIn,Conditions,Clouds,dailyrainin,SoftwareType,DateUTC
2013-02-18 00:00:00,24.2,23.3,29.74,ENE,59,0.0,0.0,97,0.00,,,0.00,VWS V14.01,2013-02-18 05:00:00,
2013-02-18 00:05:00,24.0,23.7,29.74,ENE,59,0.0,0.0,99,0.00,,,0.00,VWS V14.01,2013-02-18 05:05:00,
2013-02-18 00:10:00,24.0,23.7,29.74,ENE,59,0.0,0.0,99,0.00,,,0.00,VWS V14.01,2013-02-18 05:10:00,
2013-02-18 00:15:00,23.8,23.5,29.74,ENE,59,0.0,0.0,99,0.00,,,0.00,VWS V14.01,2013-02-18 05:15:00,
2013-02-18 00:20:00,23.4,23.2,29.74,ENE,59,0.0,0.0,99,0.00,,,0.00,VWS V14.01,2013-02-18 05:20:00,
2013-02-18 00:25:00,23.4,23.2,29.74,ENE,59,0.0,0.0,99,0.00,,,0.00,VWS V14.01,2013-02-18 05:25:00,
2013-02-18 00:30:00,23.4,23.4,29.74,ENE,59,0.0,0.0,100,0.00,,,0.00,VWS V14.01,2013-02-18 05:30:00,
2013-02-18 00:35:00,23.4,23.4,29.77,ENE,59,0.0,0.0,100,0.00,,,0.00,VWS V14.01,2013-02-18 05:35:00,
2013-02-18 00:40:00,23.3,23.3,29.77,ENE,59,0.0,0.0,100,0.00,,,0.00,VWS V14.01,2013-02-18 05:40:00,
2013-02-18 00:45:00,23.3,23.3,29.77,ENE,59,0.0,0.0,100,0.00,,,0.00,VWS V14.01,2013-02-18 05:45:00,
2013-02-18 00:50:00,23.3,23.3,29.77,ENE,59,0.0,0.0,100,0.00,,,0.00,VWS V14.01,2013-02-18 05:50:00,
2013-02-18 00:55:00,23.1,23.1,29.77,ENE,59,0.0,0.0,100,0.00,,,0.00,VWS V14.01,2013-02-18 05:55:00,
2013-02-18 01:00:00,23.1,23.1,29.77,ENE,59,0.0,0.0,100,0.00,,,0.00,VWS V14.01,2013-02-18 06:00:00,
2013-02-18 01:05:00,23.1,23.1,29.77,ENE,59,0.0,0.0,100,0.00,,,0.00,VWS V14.01,2013-02-18 06:05:00,
2013-02-18 01:10:00,22.9,22.9,29.77,ENE,59,0.0,0.0,100,0.00,,,0.00,VWS V14.01,2013-02-18 06:10:00,
2013-02-18 01:15:00,23.1,23.1,29.77,ENE,59,0.0,0.0,100,0.00,,,0.00,VWS V14.01,2013-02-18 06:15:00,
2013-02-18 01:20:00,23.1,23.1,29.77,ENE,59,0.0,0.0,100,0.00,,,0.00,VWS V14.01,2013-02-18 06:20:00,
2013-02-18 01:25:00,23.1,23.1,29.77,ENE,59,0.0,0.0,100,0.00,,,0.00,VWS V14.01,2013-02-18 06:25:00,
2013-02-18 01:30:00,22.7,22.7,29.77,ENE,59,0.0,0.0,100,0.00,,,0.00,VWS V14.01,2013-02-18 06:30:00,
2013-02-18 01:35:00,22.7,22.7,29.77,ENE,59,0.0,0.0,100,0.00,,,0.00,VWS V14.01,2013-02-18 06:35:00,
2013-02-18 01:40:00,22.7,22.7,29.77,ENE,59,0.0,0.0,100,0.00,,,0.00,VWS V14.01,2013-02-18 06:40:00,
2013-02-18 01:45:00,22.5,22.5,29.77,ENE,59,0.0,0.0,100,0.00,,,0.00,VWS V14.01,2013-02-18 06:45:00,
2013-02-18 01:50:00,22.5,22.5,29.77,ENE,59,0.0,0.0,100,0.00,,,0.00,VWS V14.01,2013-02-18 06:50:00,
2013-02-18 01:55:00,22.5,22.5,29.77,ENE,59,0.0,0.0,100,0.00,,,0.00,VWS V14.01,2013-02-18 06:55:00,
2013-02-18 02:00:00,22.5,22.5,29.77,ENE,59,0.0,0.0,100,0.00,,,0.00,VWS V14.01,2013-02-18 07:00:00,
2013-02-18 02:05:00,22.5,22.5,29.77,ENE,59,0.0,0.0,100,0.00,,,0.00,VWS V14.01,2013-02-18 07:05:00,
2013-02-18 02:10:00,22.5,22.5,29.77,ENE,59,0.0,0.0,100,0.00,,,0.00,VWS V14.01,2013-02-18 07:10:00,
2013-02-18 02:15:00,22.4,22.4,29.77,ENE,59,0.0,0.0,100,0.00,,,0.00,VWS V14.01,2013-02-18 07:15:00,
2013-02-18 02:20:00,22.4,22.4,29.77,ENE,59,0.0,0.0,100,0.00,,,0.00,VWS V14.01,2013-02-18 07:20:00,
2013-02-18 02:25:00,22.2,22.2,29.77,ENE,59,0.0,0.0,100,0.00,,,0.00,VWS V14.01,2013-02-18 07:25:00,
2013-02-18 02:30:00,22.2,22.2,29.77,ENE,59,0.0,0.0,100,0.00,,,0.00,VWS V14.01,2013-02-18 07:30:00,
2013-02-18 02:35:00,22.2,22.2,29.77,ENE,59,0.0,0.0,100,0.00,,,0.00,VWS V14.01,2013-02-18 07:35:00,
2013-02-18 02:40:00,22.2,22.2,29.77,ENE,59,0.0,0.0,100,0.00,,,0.00,VWS V14.01,2013-02-18 07:40:00,
2013-02-18 02:45:00,22.0,22.0,29.77,ENE,59,0.0,0.0,100,0.00,,,0.00,VWS V14.01,2013-02-18 07:45:00,
2013-02-18 02:50:00,22.2,22.2,29.77,ENE,59,0.0,0.0,100,0.00,,,0.00,VWS V14.01,2013-02-18 07:50:00,
2013-02-18 02:55:00,22.2,22.2,29.77,ENE,59,0.0,0.0,100,0.00,,,0.00,VWS V14.01,2013-02-18 07:55:00,
2013-02-18 03:00:00,22.2,22.2,29.77,ENE,59,0.0,0.0,100,0.00,,,0.00,VWS V14.01,2013-02-18 08:00:00,
2013-02-18 03:05:00,22.2,22.2,29.77,ENE,59,0.0,0.0,100,0.00,,,0.00,VWS V14.01,2013-02-18 08:05:00,
2013-02-18 03:10:00,22.2,22.2,29.77,ENE,59,0.0,0.0,100,0.00,,,0.00,VWS V14.01,2013-02-18 08:10:00,
2013-02-18 03:15:00,22.2,22.2,29.77,ENE,59,0.0,0.0,100,0.00,,,0.00,VWS V14.01,2013-02-18 08:15:00,
2013-02-18 03:20:00,22.2,22.2,29.77,ENE,59,0.0,0.0,100,0.00,,,0.00,VWS V14.01,2013-02-18 08:20:00,
2013-02-18 03:25:00,22.4,22.4,29.77,ENE,59,0.0,0.0,100,0.00,,,0.00,VWS V14.01,2013-02-18 08:25:00,
2013-02-18 03:30:00,22.4,22.4,29.77,ENE,59,0.0,0.0,100,0.00,,,0.00,VWS V14.01,2013-02-18 08:30:00,
2013-02-18 03:35:00,22.4,22.4,29.77,ENE,59,0.0,0.0,100,0.00,,,0.00,VWS V14.01,2013-02-18 08:35:00,
2013-02-18 03:40:00,22.4,22.4,29.77,ENE,59,0.0,0.0,100,0.00,,,0.00,VWS V14.01,2013-02-18 08:40:00,
2013-02-18 03:45:00,22.2,22.2,29.77,ENE,59,0.0,0.0,100,0.00,,,0.00,VWS V14.01,2013-02-18 08:45:00,
2013-02-18 03:50:00,22.2,22.2,29.77,ENE,59,0.0,0.0,100,0.00,,,0.00,VWS V14.01,2013-02-18 08:50:00,
2013-02-18 03:55:00,22.0,22.0,29.77,ENE,59,0.0,0.0,100,0.00,,,0.00,VWS V14.01,2013-02-18 08:55:00,
2013-02-18 04:00:00,22.0,22.0,29.77,ENE,59,0.0,0.0,100,0.00,,,0.00,VWS V14.01,2013-02-18 09:00:00,
2013-02-18 04:05:00,22.0,22.0,29.77,ENE,59,0.0,0.0,100,0.00,,,0.00,VWS V14.01,2013-02-18 09:05:00,
2013-02-18 04:10:00,22.0,22.0,29.77,ENE,59,0.0,0.0,100,0.00,,,0.00,VWS V14.01,2013-02-18 09:10:00,
2013-02-18 04:11:00,22.0,22.0,29.77,ENE,59,0.0,0.0,100,0.00,,,0.00,VWS V14.01,2013-02-18 09:11:00,
2013-02-18 04:16:00,22.0,22.0,29.77,ENE,59,0.0,0.0,100,0.00,,,0.00,VWS V14.01,2013-02-18 09:16:00,
2013-02-18 04:20:00,22.0,22.0,29.77,ENE,59,0.0,0.0,100,0.00,,,0.00,VWS V14.01,2013-02-18 09:20:00,
2013-02-18 04:21:00,22.0,22.0,29.77,ENE,59,0.0,0.0,100,0.00,,,0.00,VWS V14.01,2013-02-18 09:21:00,
2013-02-18 04:26:00,22.0,22.0,29.77,ENE,59,0.0,0.0,100,0.00,,,0.00,VWS V14.01,2013-02-18 09:26:00,
2013-02-18 04:30:00,21.8,21.8,29.77,ENE,59,0.0,0.0,100,0.00,,,0.00,VWS V14.01,2013-02-18 09:30:00,
2013-02-18 04:36:00,22.0,22.0,29.77,ENE,59,0.0,0.0,100,0.00,,,0.00,VWS V14.01,2013-02-18 09:36:00,
2013-02-18 04:40:00,21.8,21.8,29.77,ENE,59,0.0,0.0,100,0.00,,,0.00,VWS V14.01,2013-02-18 09:40:00,
2013-02-18 04:41:00,21.8,21.8,29.77,ENE,59,0.0,0.0,100,0.00,,,0.00,VWS V14.01,2013-02-18 09:41:00,
2013-02-18 04:46:00,21.8,21.8,29.77,ENE,59,0.0,0.0,100,0.00,,,0.00,VWS V14.01,2013-02-18 09:46:00,
2013-02-18 04:51:00,21.8,21.8,29.77,ENE,59,0.0,0.0,100,0.00,,,0.00,VWS V14.01,2013-02-18 09:51:00,
2013-02-18 04:56:00,21.8,21.8,29.77,ENE,59,0.0,0.0,100,0.00,,,0.00,VWS V14.01,2013-02-18 09:56:00,
2013-02-18 05:01:00,21.8,21.8,29.77,ENE,59,0.0,0.0,100,0.00,,,0.00,VWS V14.01,2013-02-18 10:01:00,
2013-02-18 05:06:00,21.8,21.8,29.77,ENE,59,0.0,0.0,100,0.00,,,0.00,VWS V14.01,2013-02-18 10:06:00,
2013-02-18 05:10:00,21.6,21.6,29.77,ENE,59,0.0,0.0,100,0.00,,,0.00,VWS V14.01,2013-02-18 10:10:00,
2013-02-18 05:11:00,21.6,21.6,29.77,ENE,59,0.0,0.0,100,0.00,,,0.00,VWS V14.01,2013-02-18 10:11:00,
2013-02-18 05:16:00,21.6,21.6,29.77,ENE,59,0.0,0.0,100,0.00,,,0.00,VWS V14.01,2013-02-18 10:16:00,
2013-02-18 05:20:00,21.5,21.5,29.77,ENE,59,0.0,0.0,100,0.00,,,0.00,VWS V14.01,2013-02-18 10:20:00,
2013-02-18 05:21:00,21.5,21.5,29.77,ENE,59,0.0,0.0,100,0.00,,,0.00,VWS V14.01,2013-02-18 10:21:00,
2013-02-18 05:26:00,21.5,21.5,29.77,ENE,59,0.0,0.0,100,0.00,,,0.00,VWS V14.01,2013-02-18 10:26:00,
2013-02-18 05:30:00,21.5,21.5,29.77,ENE,59,0.0,0.0,100,0.00,,,0.00,VWS V14.01,2013-02-18 10:30:00,
2013-02-18 05:31:00,21.5,21.5,29.77,ENE,59,0.0,0.0,100,0.00,,,0.00,VWS V14.01,2013-02-18 10:31:00,
2013-02-18 05:36:00,21.5,21.5,29.77,ENE,59,0.0,0.0,100,0.00,,,0.00,VWS V14.01,2013-02-18 10:36:00,
2013-02-18 05:40:00,21.5,21.5,29.77,ENE,59,0.0,0.0,100,0.00,,,0.00,VWS V14.01,2013-02-18 10:40:00,
2013-02-18 05:41:00,21.5,21.5,29.77,ENE,59,0.0,0.0,100,0.00,,,0.00,VWS V14.01,2013-02-18 10:41:00,
2013-02-18 05:46:00,21.3,21.3,29.77,ENE,59,0.0,0.0,100,0.00,,,0.00,VWS V14.01,2013-02-18 10:46:00,
2013-02-18 05:50:00,21.3,21.3,29.77,ENE,59,0.0,0.0,100,0.00,,,0.00,VWS V14.01,2013-02-18 10:50:00,
2013-02-18 05:51:00,21.3,21.3,29.77,ENE,59,0.0,0.0,100,0.00,,,0.00,VWS V14.01,2013-02-18 10:51:00,
2013-02-18 05:56:00,21.1,21.1,29.77,ENE,59,0.0,0.0,100,0.00,,,0.00,VWS V14.01,2013-02-18 10:56:00,
2013-02-18 06:00:00,21.1,21.1,29.77,ENE,59,0.0,0.0,100,0.00,,,0.00,VWS V14.01,2013-02-18 11:00:00,
2013-02-18 06:06:00,21.1,21.1,29.77,ENE,59,0.0,0.0,100,0.00,,,0.00,VWS V14.01,2013-02-18 11:06:00,
2013-02-18 06:10:00,21.1,21.1,29.77,ENE,59,0.0,0.0,100,0.00,,,0.00,VWS V14.01,2013-02-18 11:10:00,
2013-02-18 06:11:00,21.1,21.1,29.77,ENE,59,0.0,0.0,100,0.00,,,0.00,VWS V14.01,2013-02-18 11:11:00,
2013-02-18 06:16:00,20.7,20.7,29.77,ENE,59,0.0,0.0,100,0.00,,,0.00,VWS V14.01,2013-02-18 11:16:00,
2013-02-18 06:21:00,20.4,20.4,29.77,ENE,59,0.0,0.0,100,0.00,,,0.00,VWS V14.01,2013-02-18 11:21:00,
2013-02-18 06:26:00,20.6,20.6,29.77,ENE,59,0.0,0.0,100,0.00,,,0.00,VWS V14.01,2013-02-18 11:26:00,
2013-02-18 06:30:00,20.6,20.6,29.77,ENE,59,0.0,0.0,100,0.00,,,0.00,VWS V14.01,2013-02-18 11:30:00,
2013-02-18 06:31:00,20.6,20.6,29.77,ENE,59,0.0,0.0,100,0.00,,,0.00,VWS V14.01,2013-02-18 11:31:00,
2013-02-18 06:36:00,20.4,20.4,29.77,ENE,59,0.0,0.0,100,0.00,,,0.00,VWS V14.01,2013-02-18 11:36:00,
2013-02-18 06:40:00,20.6,20.6,29.77,ENE,59,0.0,0.0,100,0.00,,,0.00,VWS V14.01,2013-02-18 11:40:00,
2013-02-18 06:41:00,20.4,20.4,29.77,ENE,59,0.0,0.0,100,0.00,,,0.00,VWS V14.01,2013-02-18 11:41:00,
2013-02-18 06:46:00,20.4,20.4,29.77,ENE,59,0.0,0.0,100,0.00,,,0.00,VWS V14.01,2013-02-18 11:46:00,
2013-02-18 06:51:00,20.4,20.4,29.77,ENE,59,0.0,0.0,100,0.00,,,0.00,VWS V14.01,2013-02-18 11:51:00,
2013-02-18 06:56:00,20.4,20.4,29.77,ENE,59,0.0,0.0,100,0.00,,,0.00,VWS V14.01,2013-02-18 11:56:00,
2013-02-18 07:00:00,20.4,20.4,29.77,ENE,59,0.0,0.0,100,0.00,,,0.00,VWS V14.01,2013-02-18 12:00:00,
2013-02-18 07:01:00,20.2,20.2,29.77,ENE,59,0.0,0.0,100,0.00,,,0.00,VWS V14.01,2013-02-18 12:01:00,
2013-02-18 07:06:00,20.2,20.2,29.77,ENE,59,0.0,0.0,100,0.00,,,0.00,VWS V14.01,2013-02-18 12:06:00,
2013-02-18 07:11:00,20.2,20.2,29.77,ENE,59,0.0,0.0,100,0.00,,,0.00,VWS V14.01,2013-02-18 12:11:00,
2013-02-18 07:16:00,20.2,20.2,29.77,ENE,59,0.0,0.0,100,0.00,,,0.00,VWS V14.01,2013-02-18 12:16:00,
2013-02-18 07:21:00,20.2,20.2,29.80,ENE,59,0.0,0.0,100,0.00,,,0.00,VWS V14.01,2013-02-18 12:21:00,
2013-02-18 07:26:00,20.2,20.2,29.80,ENE,59,0.0,0.0,100,0.00,,,0.00,VWS V14.01,2013-02-18 12:26:00,
2013-02-18 07:31:00,20.2,20.2,29.80,ENE,59,0.0,0.0,100,0.00,,,0.00,VWS V14.01,2013-02-18 12:31:00,
2013-02-18 07:36:00,20.2,20.2,29.80,ENE,59,0.0,0.0,100,0.00,,,0.00,VWS V14.01,2013-02-18 12:36:00,
2013-02-18 07:41:00,20.4,20.4,29.80,ENE,59,0.0,0.0,100,0.00,,,0.00,VWS V14.01,2013-02-18 12:41:00,
2013-02-18 07:46:00,20.4,20.4,29.80,ENE,59,0.0,0.0,100,0.00,,,0.00,VWS V14.01,2013-02-18 12:46:00,
2013-02-18 07:50:00,20.4,20.4,29.80,ENE,59,0.0,0.0,100,0.00,,,0.00,VWS V14.01,2013-02-18 12:50:00,
2013-02-18 07:51:00,20.7,20.7,29.80,ENE,59,0.0,0.0,100,0.00,,,0.00,VWS V14.01,2013-02-18 12:51:00,
2013-02-18 07:56:00,20.9,20.9,29.80,ENE,59,0.0,0.0,100,0.00,,,0.00,VWS V14.01,2013-02-18 12:56:00,
2013-02-18 08:00:00,20.9,20.9,29.80,ENE,59,0.0,0.0,100,0.00,,,0.00,VWS V14.01,2013-02-18 13:00:00,
2013-02-18 08:01:00,20.9,20.9,29.80,ENE,59,0.0,0.0,100,0.00,,,0.00,VWS V14.01,2013-02-18 13:01:00,
2013-02-18 08:06:00,21.6,21.6,29.80,ENE,59,0.0,0.0,100,0.00,,,0.00,VWS V14.01,2013-02-18 13:06:00,
2013-02-18 08:10:00,21.6,21.6,29.80,ENE,59,0.0,0.0,100,0.00,,,0.00,VWS V14.01,2013-02-18 13:10:00,
2013-02-18 08:16:00,22.5,22.5,29.80,ENE,59,0.0,0.0,100,0.00,,,0.00,VWS V14.01,2013-02-18 13:16:00,
2013-02-18 08:20:00,22.5,22.5,29.80,ENE,59,0.0,0.0,100,0.00,,,0.00,VWS V14.01,2013-02-18 13:20:00,
2013-02-18 08:21:00,23.4,23.4,29.80,ENE,59,0.0,0.0,100,0.00,,,0.00,VWS V14.01,2013-02-18 13:21:00,
2013-02-18 08:26:00,23.6,23.6,29.80,ENE,59,0.0,0.0,100,0.00,,,0.00,VWS V14.01,2013-02-18 13:26:00,
2013-02-18 08:31:00,27.2,27.2,29.80,ENE,59,0.0,0.0,100,0.00,,,0.00,VWS V14.01,2013-02-18 13:31:00,
2013-02-18 08:36:00,27.2,27.2,29.80,ENE,59,0.0,0.0,100,0.00,,,0.00,VWS V14.01,2013-02-18 13:36:00,
2013-02-18 08:41:00,30.8,30.8,29.80,ENE,59,0.0,0.0,100,0.00,,,0.00,VWS V14.01,2013-02-18 13:41:00,
2013-02-18 08:46:00,33.7,33.7,29.80,ENE,59,0.0,0.0,100,0.00,,,0.00,VWS V14.01,2013-02-18 13:46:00,
2013-02-18 08:51:00,35.0,35.0,29.80,ENE,59,0.0,0.0,100,0.00,,,0.00,VWS V14.01,2013-02-18 13:51:00,
2013-02-18 08:56:00,36.0,34.6,29.80,ENE,59,0.0,0.0,94,0.00,,,0.00,VWS V14.01,2013-02-18 13:56:00,
2013-02-18 09:00:00,37.3,31.9,29.80,ENE,59,0.0,0.0,80,0.00,,,0.00,VWS V14.01,2013-02-18 14:00:00,
2013-02-18 09:06:00,38.0,29.6,29.83,NE,55,0.0,0.0,71,0.00,,,0.00,VWS V14.01,2013-02-18 14:06:00,
2013-02-18 09:10:00,38.0,29.6,29.83,NE,55,0.0,0.0,71,0.00,,,0.00,VWS V14.01,2013-02-18 14:10:00,
2013-02-18 09:11:00,38.0,29.6,29.83,NE,55,0.0,0.0,71,0.00,,,0.00,VWS V14.01,2013-02-18 14:11:00,
2013-02-18 09:16:00,40.0,29.8,29.83,NE,55,0.0,0.0,67,0.00,,,0.00,VWS V14.01,2013-02-18 14:16:00,
2013-02-18 09:20:00,40.0,29.8,29.83,NNE,23,0.0,0.0,67,0.00,,,0.00,VWS V14.01,2013-02-18 14:20:00,
2013-02-18 09:21:00,41.6,31.4,29.83,NNE,23,0.0,0.0,67,0.00,,,0.00,VWS V14.01,2013-02-18 14:21:00,
2013-02-18 09:26:00,42.7,31.5,29.83,NNE,13,0.0,0.0,64,0.00,,,0.00,VWS V14.01,2013-02-18 14:26:00,
2013-02-18 09:30:00,43.6,32.4,29.83,ENE,61,3.1,3.1,64,0.00,,,0.00,VWS V14.01,2013-02-18 14:30:00,
2013-02-18 09:31:00,43.6,32.4,29.83,ENE,61,3.1,3.1,64,0.00,,,0.00,VWS V14.01,2013-02-18 14:31:00,
2013-02-18 09:36:00,43.6,32.4,29.83,NE,39,0.0,3.1,64,0.00,,,0.00,VWS V14.01,2013-02-18 14:36:00,
2013-02-18 09:40:00,45.0,32.9,29.83,NNE,15,0.0,3.1,62,0.00,,,0.00,VWS V14.01,2013-02-18 14:40:00,
2013-02-18 09:41:00,45.0,32.9,29.83,NNE,15,0.0,0.0,62,0.00,,,0.00,VWS V14.01,2013-02-18 14:41:00,
2013-02-18 09:46:00,45.0,32.9,29.83,NNE,21,3.6,3.6,62,0.00,,,0.00,VWS V14.01,2013-02-18 14:46:00,
2013-02-18 09:50:00,46.3,29.0,29.83,NNE,21,3.6,3.6,51,0.00,,,0.00,VWS V14.01,2013-02-18 14:50:00,
2013-02-18 09:51:00,46.3,29.0,29.83,NE,35,0.0,3.6,51,0.00,,,0.00,VWS V14.01,2013-02-18 14:51:00,
2013-02-18 09:56:00,46.3,29.0,29.83,NE,35,0.0,3.6,51,0.00,,,0.00,VWS V14.01,2013-02-18 14:56:00,
2013-02-18 10:01:00,46.3,29.0,29.83,NNE,16,0.0,2.7,51,0.00,,,0.00,VWS V14.01,2013-02-18 15:01:00,
2013-02-18 10:07:00,47.7,29.2,29.83,NNW,341,3.6,4.0,48,0.00,,,0.00,VWS V14.01,2013-02-18 15:07:00,
2013-02-18 10:10:00,47.7,29.2,29.83,NNW,341,3.6,4.0,48,0.00,,,0.00,VWS V14.01,2013-02-18 15:10:00,
2013-02-18 10:12:00,48.5,29.8,29.83,NNE,18,3.6,3.6,48,0.00,,,0.00,VWS V14.01,2013-02-18 15:12:00,
2013-02-18 10:17:00,49.2,30.5,29.85,NNW,338,3.6,3.6,48,0.00,,,0.00,VWS V14.01,2013-02-18 15:17:00,
2013-02-18 10:22:00,49.7,31.0,29.85,NE,43,4.9,4.9,48,0.00,,,0.00,VWS V14.01,2013-02-18 15:22:00,
2013-02-18 10:27:00,49.7,31.0,29.85,NE,42,2.7,5.8,48,0.00,,,0.00,VWS V14.01,2013-02-18 15:27:00,
2013-02-18 10:37:00,50.3,31.5,29.85,ENE,74,2.7,2.7,48,0.00,,,0.00,VWS V14.01,2013-02-18 15:37:00,
2013-02-18 10:42:00,50.4,29.2,29.85,ENE,57,5.8,5.8,44,0.00,,,0.00,VWS V14.01,2013-02-18 15:42:00,
2013-02-18 10:47:00,50.6,29.4,29.85,North,353,5.4,5.8,44,0.00,,,0.00,VWS V14.01,2013-02-18 15:47:00,
2013-02-18 10:52:00,50.4,29.2,29.85,North,353,5.4,5.4,44,0.00,,,0.00,VWS V14.01,2013-02-18 15:52:00,
2013-02-18 10:57:00,51.3,28.7,29.85,East,99,0.0,5.4,41,0.00,,,0.00,VWS V14.01,2013-02-18 15:57:00,
2013-02-18 11:00:00,52.1,29.3,29.85,NE,54,3.6,5.4,41,0.00,,,0.00,VWS V14.01,2013-02-18 16:00:00,
2013-02-18 11:02:00,52.1,29.3,29.85,North,6,3.6,3.6,41,0.00,,,0.00,VWS V14.01,2013-02-18 16:02:00,
2013-02-18 11:07:00,52.1,29.3,29.85,North,6,3.6,3.6,41,0.00,,,0.00,VWS V14.01,2013-02-18 16:07:00,
2013-02-18 11:10:00,52.1,29.3,29.85,ENE,67,5.8,5.8,41,0.00,,,0.00,VWS V14.01,2013-02-18 16:10:00,
2013-02-18 11:12:00,52.1,29.3,29.85,East,91,3.6,5.8,41,0.00,,,0.00,VWS V14.01,2013-02-18 16:12:00,
2013-02-18 11:17:00,52.1,29.3,29.85,NNE,33,0.0,5.8,41,0.00,,,0.00,VWS V14.01,2013-02-18 16:17:00,
2013-02-18 11:22:00,53.5,30.6,29.85,NE,38,4.0,4.0,41,0.00,,,0.00,VWS V14.01,2013-02-18 16:22:00,
2013-02-18 11:27:00,53.5,30.6,29.85,NNE,22,3.6,4.0,41,0.00,,,0.00,VWS V14.01,2013-02-18 16:27:00,
2013-02-18 11:30:00,52.8,30.0,29.85,ESE,104,0.0,4.0,41,0.00,,,0.00,VWS V14.01,2013-02-18 16:30:00,
2013-02-18 11:32:00,53.5,30.6,29.85,ESE,104,0.0,0.0,41,0.00,,,0.00,VWS V14.01,2013-02-18 16:32:00,
2013-02-18 11:37:00,53.5,30.6,29.85,ENE,60,0.0,4.0,41,0.00,,,0.00,VWS V14.01,2013-02-18 16:37:00,
2013-02-18 11:40:00,53.5,30.6,29.85,ENE,60,0.0,4.0,41,0.00,,,0.00,VWS V14.01,2013-02-18 16:40:00,
2013-02-18 11:42:00,53.5,30.6,29.85,ENE,60,0.0,0.0,41,0.00,,,0.00,VWS V14.01,2013-02-18 16:42:00,
2013-02-18 11:47:00,53.5,30.6,29.85,North,0,4.0,4.0,41,0.00,,,0.00,VWS V14.01,2013-02-18 16:47:00,
2013-02-18 11:50:00,53.5,30.6,29.85,NE,38,2.7,4.0,41,0.00,,,0.00,VWS V14.01,2013-02-18 16:50:00,
2013-02-18 11:52:00,53.5,30.6,29.85,NE,48,5.8,5.8,41,0.00,,,0.00,VWS V14.01,2013-02-18 16:52:00,
2013-02-18 11:57:00,53.9,31.0,29.85,NE,43,3.1,5.8,41,0.00,,,0.00,VWS V14.01,2013-02-18 16:57:00,
2013-02-18 12:02:00,54.0,31.1,29.85,NE,36,7.6,7.6,41,0.00,,,0.00,VWS V14.01,2013-02-18 17:02:00,
2013-02-18 12:07:00,54.2,31.3,29.85,NE,47,5.4,7.6,41,0.00,,,0.00,VWS V14.01,2013-02-18 17:07:00,
2013-02-18 12:10:00,54.2,31.3,29.85,NE,47,5.4,7.6,41,0.00,,,0.00,VWS V14.01,2013-02-18 17:10:00,
2013-02-18 12:12:00,54.2,31.3,29.85,ENE,78,3.1,5.4,41,0.00,,,0.00,VWS V14.01,2013-02-18 17:12:00,
2013-02-18 12:17:00,54.9,30.5,29.85,NNE,29,8.1,8.1,39,0.00,,,0.00,VWS V14.01,2013-02-18 17:17:00,
2013-02-18 12:20:00,54.9,30.5,29.85,North,2,5.4,8.1,39,0.00,,,0.00,VWS V14.01,2013-02-18 17:20:00,
2013-02-18 12:27:00,54.6,30.2,29.85,NE,50,6.3,6.3,39,0.00,,,0.00,VWS V14.01,2013-02-18 17:27:00,
2013-02-18 12:32:00,54.4,30.0,29.85,ENE,57,3.1,6.3,39,0.00,,,0.00,VWS V14.01,2013-02-18 17:32:00,
2013-02-18 12:37:00,54.4,30.0,29.85,ENE,71,2.7,6.3,39,0.00,,,0.00,VWS V14.01,2013-02-18 17:37:00,
2013-02-18 12:40:00,54.4,30.0,29.85,ENE,64,3.1,6.3,39,0.00,,,0.00,VWS V14.01,2013-02-18 17:40:00,
2013-02-18 12:47:00,54.2,31.3,29.83,NNE,17,5.8,5.8,41,0.00,,,0.00,VWS V14.01,2013-02-18 17:47:00,
2013-02-18 12:50:00,54.0,31.1,29.83,NNE,17,5.8,5.8,41,0.00,,,0.00,VWS V14.01,2013-02-18 17:50:00,
2013-02-18 12:52:00,54.0,31.1,29.83,North,2,5.8,5.8,41,0.00,,,0.00,VWS V14.01,2013-02-18 17:52:00,
2013-02-18 12:57:00,54.4,30.0,29.83,NNE,23,4.5,5.8,39,0.00,,,0.00,VWS V14.01,2013-02-18 17:57:00,
2013-02-18 13:00:00,54.4,30.0,29.83,NE,45,5.8,5.8,39,0.00,,,0.00,VWS V14.01,2013-02-18 18:00:00,
2013-02-18 13:02:00,54.4,30.0,29.83,WNW,283,2.7,5.8,39,0.00,,,0.00,VWS V14.01,2013-02-18 18:02:00,
2013-02-18 13:07:00,55.7,31.2,29.83,NNE,20,4.9,5.8,39,0.00,,,0.00,VWS V14.01,2013-02-18 18:07:00,
2013-02-18 13:10:00,55.7,31.2,29.83,NNE,20,4.9,5.8,39,0.00,,,0.00,VWS V14.01,2013-02-18 18:10:00,
2013-02-18 13:12:00,56.2,31.7,29.83,ENE,65,5.8,5.8,39,0.00,,,0.00,VWS V14.01,2013-02-18 18:12:00,
2013-02-18 13:17:00,55.8,31.3,29.83,East,89,5.4,6.3,39,0.00,,,0.00,VWS V14.01,2013-02-18 18:17:00,
2013-02-18 13:22:00,55.7,31.2,29.83,NE,48,8.1,8.1,39,0.00,,,0.00,VWS V14.01,2013-02-18 18:22:00,
2013-02-18 13:27:00,55.7,31.2,29.83,NNE,12,5.8,8.1,39,0.00,,,0.00,VWS V14.01,2013-02-18 18:27:00,
2013-02-18 13:32:00,55.3,30.9,29.83,North,353,6.3,6.3,39,0.00,,,0.00,VWS V14.01,2013-02-18 18:32:00,
2013-02-18 13:37:00,55.3,30.9,29.83,NNE,19,5.4,6.3,39,0.00,,,0.00,VWS V14.01,2013-02-18 18:37:00,
2013-02-18 13:42:00,56.2,31.7,29.83,NE,40,0.0,5.4,39,0.00,,,0.00,VWS V14.01,2013-02-18 18:42:00,
2013-02-18 13:47:00,56.9,32.3,29.83,North,7,2.7,5.4,39,0.00,,,0.00,VWS V14.01,2013-02-18 18:47:00,
2013-02-18 13:50:00,56.9,32.3,29.83,NNE,32,3.6,5.4,39,0.00,,,0.00,VWS V14.01,2013-02-18 18:50:00,
2013-02-18 13:58:00,56.6,32.0,29.83,ENE,69,3.6,3.6,39,0.00,,,0.00,VWS V14.01,2013-02-18 18:58:00,
2013-02-18 14:03:00,56.6,32.0,29.80,NE,56,4.0,4.0,39,0.00,,,0.00,VWS V14.01,2013-02-18 19:03:00,
2013-02-18 14:08:00,57.3,35.4,29.80,NW,323,3.6,4.0,44,0.00,,,0.00,VWS V14.01,2013-02-18 19:08:00,
2013-02-18 14:13:00,57.3,35.4,29.80,NNW,330,3.1,5.8,44,0.00,,,0.00,VWS V14.01,2013-02-18 19:13:00,
2013-02-18 14:18:00,57.3,35.4,29.80,NNE,32,7.6,7.6,44,0.00,,,0.00,VWS V14.01,2013-02-18 19:18:00,
2013-02-18 14:20:00,57.3,35.4,29.80,NE,48,6.7,7.6,44,0.00,,,0.00,VWS V14.01,2013-02-18 19:20:00,
2013-02-18 14:23:00,57.3,35.4,29.80,NE,48,6.7,6.7,44,0.00,,,0.00,VWS V14.01,2013-02-18 19:23:00,
2013-02-18 14:28:00,57.6,35.7,29.80,NE,37,4.9,6.7,44,0.00,,,0.00,VWS V14.01,2013-02-18 19:28:00,
2013-02-18 14:30:00,57.6,35.7,29.80,NE,37,4.9,6.7,44,0.00,,,0.00,VWS V14.01,2013-02-18 19:30:00,
2013-02-18 14:33:00,57.8,35.9,29.80,ENE,61,7.6,7.6,44,0.00,,,0.00,VWS V14.01,2013-02-18 19:33:00,
2013-02-18 14:38:00,57.8,35.9,29.80,NNE,23,4.0,7.6,44,0.00,,,0.00,VWS V14.01,2013-02-18 19:38:00,
2013-02-18 14:40:00,57.8,35.9,29.80,NNE,23,4.0,7.6,44,0.00,,,0.00,VWS V14.01,2013-02-18 19:40:00,
2013-02-18 14:48:00,57.8,35.9,29.83,NE,54,7.6,8.1,44,0.00,,,0.00,VWS V14.01,2013-02-18 19:48:00,
2013-02-18 14:50:00,57.5,32.8,29.83,NE,54,7.6,8.1,39,0.00,,,0.00,VWS V14.01,2013-02-18 19:50:00,
2013-02-18 14:53:00,57.1,32.5,29.83,ENE,64,5.8,7.6,39,0.00,,,0.00,VWS V14.01,2013-02-18 19:53:00,
2013-02-18 14:58:00,57.5,32.8,29.83,NE,42,5.8,7.6,39,0.00,,,0.00,VWS V14.01,2013-02-18 19:58:00,
2013-02-18 15:00:00,57.5,32.8,29.80,ENE,76,8.7,8.7,39,0.00,,,0.00,VWS V14.01,2013-02-18 20:00:00,
2013-02-18 15:03:00,57.3,32.6,29.80,North,357,5.8,8.7,39,0.00,,,0.00,VWS V14.01,2013-02-18 20:03:00,
2013-02-18 15:08:00,57.3,32.6,29.80,North,4,5.8,8.7,39,0.00,,,0.00,VWS V14.01,2013-02-18 20:08:00,
2013-02-18 15:10:00,57.5,32.8,29.80,NE,43,5.4,8.7,39,0.00,,,0.00,VWS V14.01,2013-02-18 20:10:00,
2013-02-18 15:18:00,57.6,35.7,29.80,NE,48,6.3,8.3,44,0.00,,,0.00,VWS V14.01,2013-02-18 20:18:00,
2013-02-18 15:20:00,57.6,35.7,29.80,NE,46,5.8,8.3,44,0.00,,,0.00,VWS V14.01,2013-02-18 20:20:00,
2013-02-18 15:28:00,57.5,35.6,29.80,NNE,15,3.6,7.6,44,0.00,,,0.00,VWS V14.01,2013-02-18 20:28:00,
2013-02-18 15:30:00,57.5,35.6,29.80,NNE,14,8.3,8.3,44,0.00,,,0.00,VWS V14.01,2013-02-18 20:30:00,
2013-02-18 15:33:00,57.5,35.6,29.80,NNE,14,8.3,8.3,44,0.00,,,0.00,VWS V14.01,2013-02-18 20:33:00,
2013-02-18 15:38:00,57.5,35.6,29.80,WNW,293,5.8,8.3,44,0.00,,,0.00,VWS V14.01,2013-02-18 20:38:00,
2013-02-18 15:43:00,56.9,35.1,29.80,NNE,29,3.1,5.8,44,0.00,,,0.00,VWS V14.01,2013-02-18 20:43:00,
2013-02-18 15:48:00,57.1,32.5,29.80,NNE,13,6.3,6.3,39,0.00,,,0.00,VWS V14.01,2013-02-18 20:48:00,
2013-02-18 15:53:00,56.9,32.3,29.80,NNE,21,6.3,8.3,39,0.00,,,0.00,VWS V14.01,2013-02-18 20:53:00,
2013-02-18 15:58:00,56.9,32.3,29.80,NE,35,8.1,8.3,39,0.00,,,0.00,VWS V14.01,2013-02-18 20:58:00,
2013-02-18 16:03:00,57.3,35.4,29.80,NNE,31,3.1,8.1,44,0.00,,,0.00,VWS V14.01,2013-02-18 21:03:00,
2013-02-18 16:08:00,57.1,35.2,29.80,NNE,31,3.1,8.1,44,0.00,,,0.00,VWS V14.01,2013-02-18 21:08:00,
2013-02-18 16:13:00,57.1,35.2,29.80,North,7,8.3,8.3,44,0.00,,,0.00,VWS V14.01,2013-02-18 21:13:00,
2013-02-18 16:18:00,56.9,35.1,29.80,NE,38,8.1,8.3,44,0.00,,,0.00,VWS V14.01,2013-02-18 21:18:00,
2013-02-18 16:20:00,56.9,35.1,29.80,NNE,12,7.6,8.3,44,0.00,,,0.00,VWS V14.01,2013-02-18 21:20:00,
2013-02-18 16:23:00,56.9,35.1,29.80,NE,40,5.4,7.6,44,0.00,,,0.00,VWS V14.01,2013-02-18 21:23:00,
2013-02-18 16:28:00,56.6,34.8,29.80,NE,40,5.4,7.6,44,0.00,,,0.00,VWS V14.01,2013-02-18 21:28:00,
2013-02-18 16:33:00,56.6,34.8,29.80,NNE,23,5.4,5.4,44,0.00,,,0.00,VWS V14.01,2013-02-18 21:33:00,
2013-02-18 16:38:00,56.6,34.8,29.80,NNE,30,6.3,6.3,44,0.00,,,0.00,VWS V14.01,2013-02-18 21:38:00,
2013-02-18 16:40:00,56.6,34.8,29.80,NNE,30,6.3,6.3,44,0.00,,,0.00,VWS V14.01,2013-02-18 21:40:00,
2013-02-18 16:43:00,56.4,34.6,29.80,North,353,5.8,6.3,44,0.00,,,0.00,VWS V14.01,2013-02-18 21:43:00,
2013-02-18 16:48:00,56.4,34.6,29.80,NE,43,8.3,8.3,44,0.00,,,0.00,VWS V14.01,2013-02-18 21:48:00,
2013-02-18 16:50:00,56.4,34.6,29.80,NE,43,8.3,8.3,44,0.00,,,0.00,VWS V14.01,2013-02-18 21:50:00,
2013-02-18 16:53:00,56.0,35.5,29.80,ENE,64,8.1,8.3,46,0.00,,,0.00,VWS V14.01,2013-02-18 21:53:00,
2013-02-18 16:58:00,56.0,35.5,29.80,NNE,24,6.3,8.3,46,0.00,,,0.00,VWS V14.01,2013-02-18 21:58:00,
2013-02-18 17:03:00,56.2,34.4,29.80,NNE,24,6.3,6.3,44,0.00,,,0.00,VWS V14.01,2013-02-18 22:03:00,
2013-02-18 17:08:00,55.8,35.4,29.80,NE,36,7.2,7.2,46,0.00,,,0.00,VWS V14.01,2013-02-18 22:08:00,
2013-02-18 17:10:00,55.8,35.4,29.80,NNE,32,7.6,7.6,46,0.00,,,0.00,VWS V14.01,2013-02-18 22:10:00,
2013-02-18 17:13:00,55.7,35.2,29.80,North,0,4.0,7.6,46,0.00,,,0.00,VWS V14.01,2013-02-18 22:13:00,
2013-02-18 17:18:00,55.7,35.2,29.80,NE,36,6.3,7.6,46,0.00,,,0.00,VWS V14.01,2013-02-18 22:18:00,
2013-02-18 17:20:00,55.7,35.2,29.80,NE,36,6.3,7.6,46,0.00,,,0.00,VWS V14.01,2013-02-18 22:20:00,
2013-02-18 17:23:00,55.7,35.2,29.80,NNE,31,5.4,6.3,46,0.00,,,0.00,VWS V14.01,2013-02-18 22:23:00,
2013-02-18 17:28:00,55.3,34.9,29.80,NNE,31,5.4,6.3,46,0.00,,,0.00,VWS V14.01,2013-02-18 22:28:00,
2013-02-18 17:30:00,55.1,34.7,29.80,NNE,31,5.4,6.3,46,0.00,,,0.00,VWS V14.01,2013-02-18 22:30:00,
2013-02-18 17:38:00,54.6,34.2,29.80,NW,326,2.2,5.4,46,0.00,,,0.00,VWS V14.01,2013-02-18 22:38:00,
2013-02-18 17:40:00,54.6,34.2,29.80,NNE,22,5.4,5.4,46,0.00,,,0.00,VWS V14.01,2013-02-18 22:40:00,
2013-02-18 17:48:00,54.6,34.2,29.80,NE,38,4.0,5.4,46,0.00,,,0.00,VWS V14.01,2013-02-18 22:48:00,
2013-02-18 17:50:00,54.6,34.2,29.80,NNE,15,3.1,5.4,46,0.00,,,0.00,VWS V14.01,2013-02-18 22:50:00,
2013-02-18 17:53:00,53.5,33.2,29.80,NNE,24,4.0,4.0,46,0.00,,,0.00,VWS V14.01,2013-02-18 22:53:00,
2013-02-18 17:58:00,53.5,33.2,29.80,NNE,24,4.0,4.0,46,0.00,,,0.00,VWS V14.01,2013-02-18 22:58:00,
2013-02-18 18:00:00,52.8,32.6,29.80,NNE,24,4.0,4.0,46,0.00,,,0.00,VWS V14.01,2013-02-18 23:00:00,
2013-02-18 18:08:00,52.1,33.2,29.80,North,9,0.0,5.8,48,0.00,,,0.00,VWS V14.01,2013-02-18 23:08:00,
2013-02-18 18:10:00,52.1,33.2,29.80,North,9,0.0,5.8,48,0.00,,,0.00,VWS V14.01,2013-02-18 23:10:00,
2013-02-18 18:13:00,52.1,33.2,29.80,NNE,29,0.0,0.0,48,0.00,,,0.00,VWS V14.01,2013-02-18 23:13:00,
2013-02-18 18:18:00,51.3,32.5,29.80,NNE,15,2.7,2.7,48,0.00,,,0.00,VWS V14.01,2013-02-18 23:18:00,
2013-02-18 18:29:00,50.6,31.8,29.80,NNE,22,2.2,3.1,48,0.00,,,0.00,VWS V14.01,2013-02-18 23:29:00,
2013-02-18 18:34:00,50.6,31.8,29.80,North,353,0.0,0.0,48,0.00,,,0.00,VWS V14.01,2013-02-18 23:34:00,
2013-02-18 18:39:00,50.6,31.8,29.80,WNW,302,0.0,0.0,48,0.00,,,0.00,VWS V14.01,2013-02-18 23:39:00,
2013-02-18 18:40:00,50.6,31.8,29.80,WNW,302,0.0,0.0,48,0.00,,,0.00,VWS V14.01,2013-02-18 23:40:00,
2013-02-18 18:44:00,48.8,30.2,29.80,WNW,302,0.0,0.0,48,0.00,,,0.00,VWS V14.01,2013-02-18 23:44:00,
2013-02-18 18:49:00,48.3,29.7,29.80,WNW,302,0.0,0.0,48,0.00,,,0.00,VWS V14.01,2013-02-18 23:49:00,
2013-02-18 18:50:00,48.3,29.7,29.80,NW,304,0.0,0.0,48,0.00,,,0.00,VWS V14.01,2013-02-18 23:50:00,
2013-02-18 18:54:00,47.6,29.0,29.80,NW,304,0.0,0.0,48,0.00,,,0.00,VWS V14.01,2013-02-18 23:54:00,
2013-02-18 18:59:00,47.6,29.0,29.80,NW,304,0.0,0.0,48,0.00,,,0.00,VWS V14.01,2013-02-18 23:59:00,
2013-02-18 19:04:00,47.6,29.0,29.80,NW,304,0.0,0.0,48,0.00,,,0.00,VWS V14.01,2013-02-19 00:04:00,
2013-02-18 19:09:00,45.4,28.1,29.80,NW,304,0.0,0.0,51,0.00,,,0.00,VWS V14.01,2013-02-19 00:09:00,
2013-02-18 19:10:00,45.4,28.1,29.80,NW,304,0.0,0.0,51,0.00,,,0.00,VWS V14.01,2013-02-19 00:10:00,
2013-02-18 19:14:00,45.0,27.8,29.80,NW,304,0.0,0.0,51,0.00,,,0.00,VWS V14.01,2013-02-19 00:14:00,
2013-02-18 19:19:00,44.0,26.8,29.77,NW,304,0.0,0.0,51,0.00,,,0.00,VWS V14.01,2013-02-19 00:19:00,
2013-02-18 19:24:00,43.8,26.7,29.77,NW,304,0.0,0.0,51,0.00,,,0.00,VWS V14.01,2013-02-19 00:24:00,
2013-02-18 19:29:00,42.7,28.8,29.77,NW,304,0.0,0.0,58,0.00,,,0.00,VWS V14.01,2013-02-19 00:29:00,
2013-02-18 19:30:00,42.7,28.8,29.77,NW,304,0.0,0.0,58,0.00,,,0.00,VWS V14.01,2013-02-19 00:30:00,
2013-02-18 19:34:00,42.3,28.4,29.77,NW,304,0.0,0.0,58,0.00,,,0.00,VWS V14.01,2013-02-19 00:34:00,
2013-02-18 19:39:00,42.3,28.4,29.77,NW,304,0.0,0.0,58,0.00,,,0.00,VWS V14.01,2013-02-19 00:39:00,
2013-02-18 19:44:00,41.3,30.2,29.77,NW,304,0.0,0.0,64,0.00,,,0.00,VWS V14.01,2013-02-19 00:44:00,
2013-02-18 19:49:00,41.1,30.0,29.77,NW,304,0.0,0.0,64,0.00,,,0.00,VWS V14.01,2013-02-19 00:49:00,
2013-02-18 19:50:00,41.1,30.0,29.77,NW,304,0.0,0.0,64,0.00,,,0.00,VWS V14.01,2013-02-19 00:50:00,
2013-02-18 19:54:00,41.1,30.0,29.77,NW,304,0.0,0.0,64,0.00,,,0.00,VWS V14.01,2013-02-19 00:54:00,
2013-02-18 19:59:00,40.9,30.7,29.77,NW,304,0.0,0.0,67,0.00,,,0.00,VWS V14.01,2013-02-19 00:59:00,
2013-02-18 20:00:00,40.7,30.5,29.77,NW,304,0.0,0.0,67,0.00,,,0.00,VWS V14.01,2013-02-19 01:00:00,
2013-02-18 20:04:00,40.7,30.5,29.77,NW,304,0.0,0.0,67,0.00,,,0.00,VWS V14.01,2013-02-19 01:04:00,
2013-02-18 20:09:00,40.0,29.8,29.74,NW,304,0.0,0.0,67,0.00,,,0.00,VWS V14.01,2013-02-19 01:09:00,
2013-02-18 20:10:00,40.0,29.8,29.74,NW,304,0.0,0.0,67,0.00,,,0.00,VWS V14.01,2013-02-19 01:10:00,
2013-02-18 20:14:00,39.8,29.7,29.74,NW,304,0.0,0.0,67,0.00,,,0.00,VWS V14.01,2013-02-19 01:14:00,
2013-02-18 20:19:00,39.8,29.7,29.74,NW,313,0.0,0.0,67,0.00,,,0.00,VWS V14.01,2013-02-19 01:19:00,
2013-02-18 20:20:00,39.8,29.7,29.74,NW,313,0.0,0.0,67,0.00,,,0.00,VWS V14.01,2013-02-19 01:20:00,
2013-02-18 20:24:00,39.6,30.3,29.74,NW,313,0.0,0.0,69,0.00,,,0.00,VWS V14.01,2013-02-19 01:24:00,
2013-02-18 20:29:00,39.5,30.1,29.74,NW,313,0.0,0.0,69,0.00,,,0.00,VWS V14.01,2013-02-19 01:29:00,
2013-02-18 20:30:00,39.5,30.1,29.74,NW,313,0.0,0.0,69,0.00,,,0.00,VWS V14.01,2013-02-19 01:30:00,
2013-02-18 20:39:00,38.9,29.6,29.74,NW,313,0.0,0.0,69,0.00,,,0.00,VWS V14.01,2013-02-19 01:39:00,
2013-02-18 20:40:00,38.9,29.6,29.74,NW,313,0.0,0.0,69,0.00,,,0.00,VWS V14.01,2013-02-19 01:40:00,
2013-02-18 20:44:00,37.8,29.4,29.74,NW,313,0.0,0.0,71,0.00,,,0.00,VWS V14.01,2013-02-19 01:44:00,
2013-02-18 20:49:00,37.8,29.4,29.74,NW,313,0.0,0.0,71,0.00,,,0.00,VWS V14.01,2013-02-19 01:49:00,
2013-02-18 20:54:00,37.1,28.7,29.74,NW,313,0.0,0.0,71,0.00,,,0.00,VWS V14.01,2013-02-19 01:54:00,
2013-02-18 20:59:00,37.1,28.7,29.74,NW,313,0.0,0.0,71,0.00,,,0.00,VWS V14.01,2013-02-19 01:59:00,
2013-02-18 21:00:00,37.1,28.7,29.74,NW,313,0.0,0.0,71,0.00,,,0.00,VWS V14.01,2013-02-19 02:00:00,
2013-02-18 21:04:00,36.8,29.9,29.74,NW,313,0.0,0.0,76,0.00,,,0.00,VWS V14.01,2013-02-19 02:04:00,
2013-02-18 21:09:00,36.6,31.2,29.74,NW,313,0.0,0.0,80,0.00,,,0.00,VWS V14.01,2013-02-19 02:09:00,
2013-02-18 21:10:00,36.6,31.2,29.74,NW,313,0.0,0.0,80,0.00,,,0.00,VWS V14.01,2013-02-19 02:10:00,
2013-02-18 21:14:00,36.4,30.3,29.74,NW,313,0.0,0.0,78,0.00,,,0.00,VWS V14.01,2013-02-19 02:14:00,
2013-02-18 21:19:00,35.9,30.5,29.74,NW,313,0.0,0.0,80,0.00,,,0.00,VWS V14.01,2013-02-19 02:19:00,
2013-02-18 21:24:00,35.9,30.5,29.74,NW,313,0.0,0.0,80,0.00,,,0.00,VWS V14.01,2013-02-19 02:24:00,
2013-02-18 21:29:00,35.3,29.2,29.74,NW,313,0.0,0.0,78,0.00,,,0.00,VWS V14.01,2013-02-19 02:29:00,
2013-02-18 21:30:00,35.3,29.2,29.74,NW,313,0.0,0.0,78,0.00,,,0.00,VWS V14.01,2013-02-19 02:30:00,
2013-02-18 21:40:00,35.1,29.8,29.74,NW,313,0.0,0.0,80,0.00,,,0.00,VWS V14.01,2013-02-19 02:40:00,
2013-02-18 21:45:00,34.6,29.9,29.74,NW,313,0.0,0.0,83,0.00,,,0.00,VWS V14.01,2013-02-19 02:45:00,
2013-02-18 21:50:00,34.4,31.7,29.74,NW,313,0.0,0.0,90,0.00,,,0.00,VWS V14.01,2013-02-19 02:50:00,
2013-02-18 21:55:00,34.2,32.2,29.74,NW,313,0.0,0.0,92,0.00,,,0.00,VWS V14.01,2013-02-19 02:55:00,
2013-02-18 22:00:00,34.1,32.0,29.74,NW,313,0.0,0.0,92,0.00,,,0.00,VWS V14.01,2013-02-19 03:00:00,
2013-02-18 22:05:00,34.1,32.0,29.74,NW,313,0.0,0.0,92,0.00,,,0.00,VWS V14.01,2013-02-19 03:05:00,
2013-02-18 22:10:00,34.1,32.0,29.74,NW,313,0.0,0.0,92,0.00,,,0.00,VWS V14.01,2013-02-19 03:10:00,
2013-02-18 22:15:00,34.1,32.0,29.74,North,0,0.0,0.0,92,0.00,,,0.00,VWS V14.01,2013-02-19 03:15:00,
2013-02-18 22:20:00,34.6,33.1,29.74,NNW,346,0.0,0.0,94,0.00,,,0.00,VWS V14.01,2013-02-19 03:20:00,
2013-02-18 22:25:00,34.6,33.1,29.74,NNW,346,0.0,0.0,94,0.00,,,0.00,VWS V14.01,2013-02-19 03:25:00,
2013-02-18 22:30:00,34.8,33.3,29.74,NNW,346,0.0,0.0,94,0.00,,,0.00,VWS V14.01,2013-02-19 03:30:00,
2013-02-18 22:35:00,35.7,34.2,29.74,North,353,0.0,0.0,94,0.00,,,0.00,VWS V14.01,2013-02-19 03:35:00,
2013-02-18 22:40:00,35.7,34.2,29.74,North,353,0.0,0.0,94,0.00,,,0.00,VWS V14.01,2013-02-19 03:40:00,
2013-02-18 22:45:00,38.0,33.3,29.74,NNE,23,2.2,2.7,83,0.00,,,0.00,VWS V14.01,2013-02-19 03:45:00,
2013-02-18 22:50:00,38.6,31.6,29.71,WNW,287,2.2,2.2,76,0.00,,,0.00,VWS V14.01,2013-02-19 03:50:00,
2013-02-18 22:55:00,39.5,31.7,29.71,NNE,12,0.0,2.2,74,0.00,,,0.00,VWS V14.01,2013-02-19 03:55:00,
2013-02-18 23:00:00,40.5,31.2,29.71,North,8,3.6,3.6,69,0.00,,,0.00,VWS V14.01,2013-02-19 04:00:00,
2013-02-18 23:05:00,40.9,31.5,29.71,North,357,4.9,4.9,69,0.00,,,0.00,VWS V14.01,2013-02-19 04:05:00,
2013-02-18 23:10:00,41.1,31.7,29.71,North,0,0.0,4.9,69,0.00,,,0.00,VWS V14.01,2013-02-19 04:10:00,
2013-02-18 23:15:00,41.3,31.9,29.71,NNW,341,4.0,4.0,69,0.00,,,0.00,VWS V14.01,2013-02-19 04:15:00,
2013-02-18 23:20:00,41.3,31.9,29.71,NNE,28,3.6,4.0,69,0.00,,,0.00,VWS V14.01,2013-02-19 04:20:00,
2013-02-18 23:25:00,41.6,32.2,29.71,NNE,20,3.1,3.6,69,0.00,,,0.00,VWS V14.01,2013-02-19 04:25:00,
2013-02-18 23:30:00,41.6,32.2,29.71,NW,312,0.0,3.6,69,0.00,,,0.00,VWS V14.01,2013-02-19 04:30:00,
2013-02-18 23:35:00,41.4,32.0,29.71,NNE,14,2.2,2.2,69,0.00,,,0.00,VWS V14.01,2013-02-19 04:35:00,
2013-02-18 23:40:00,41.4,32.0,29.71,North,357,0.0,5.8,69,0.00,,,0.00,VWS V14.01,2013-02-19 04:40:00,
2013-02-18 23:45:00,41.4,32.0,29.71,North,7,0.0,2.7,69,0.00,,,0.00,VWS V14.01,2013-02-19 04:45:00,
2013-02-18 23:50:00,41.3,31.9,29.71,NNE,29,2.2,3.6,69,0.00,,,0.00,VWS V14.01,2013-02-19 04:50:00,
2013-02-18 23:55:00,41.1,31.7,29.71,North,0,3.1,3.1,69,0.00,,,0.00,VWS V14.01,2013-02-19 04:55:00,